星链-4119 (STARLINK-4119 )

导读 | 豆包AI

STARLINK-4119是美国SpaceX公司于2022年7月7日发射的星链系列卫星,属于星链星座组网的组成部分。星链计划旨在近地轨道构建超大规模卫星互联网星座,提供全球覆盖的高速宽带接入服务,目前在轨卫星已超9600颗,该卫星主要承担全球网络覆盖补网功能,服务偏远地区网络接入等场景。

基本信息
目录编号:
53026
目录名称:
STARLINK-4119
国际标识:
2022-076AS
轨道中心:
EARTH
卫星名称:
星链-4119
卫星全名:
星链-4119 (STARLINK-4119 )
卫星状态:
在轨 (已飞行1347 天)
发射日期:
2022-07-07 UTC
国别 :
美国 (US)
星等 :
--
轨道信息
数据来源 国际轨道数据 AOE轨道数据
星历时间 2026-03-14T13:34:37+0800
21小时前
查看轨道信息
2026-03-11T05:00:00+0800
4天前
查看轨道信息
半长轴 6917.891km 6917.844km
偏心率 0.000151 0.0001355
轨道倾角 53.218° 53.217°
近地点辐角 77.632° 88.255°
升交点赤经 63.618° 78.695°
平近点角 282.484° 25.294°
近地点 538.709km 538.769km
远地点 540.799km 540.645km
周期 95.438分钟 95.437分钟
每日圈数 15.088366 15.08852
详细信息
固有亮度:
5
最大亮度:
2.5
卫星平台:
Starlink v1.5
覆盖范围:
全球
运营商:
太空探索技术公司
运营商所在国:
美国
制造商(研发单位):
太空探索技术公司
制造商所在国:
美国
使用方式:
暂无
卫星简介
星链(Starlink)计划是由太空探索技术公司(SpaceX)提出的一个巨型低轨卫星互联网星座项目,计划在2019年至2024年间在太空搭建由约1.2万颗卫星组成的“星链”网络,其中1584颗将部署在地球上空550千米处的近地轨道,并从2020年开始工作。该卫星仍在工作。
2D轨道图
3D轨道图
轨道高度分析图
轨道倾角分析图
轨道综合分析图
查看轨道综合分析图